When you browse on this site, cookies collect data to enhance your experience and personalize the content and advertising you see.
Visit our Privacy Policy to learn more. By continuing to use the site, you agree to this use of cookies and data.
  • In France
  • List of Countries
  • For 7 days
  • Water Temperature
  • Weather Map
  • Weather Widgets
  • user-avatar
    Login

    Hourly Weather Fredericton

    Today, 26 May, Tuesday

    Time Temperature Precipitation Wind Pressure Humidity
    00:00 +12°C° 0 mm 3 mps 764 mmHg 94%
    01:00 +12°C° 0 mm 3 mps 764 mmHg 94%
    02:00 +12°C° 0 mm 3 mps 764 mmHg 93%
    03:00 +13°C° 0.2 mm 3 mps 764 mmHg 95%
    04:00 +13°C° 0.2 mm 3 mps 764 mmHg 96%
    05:00 +13°C° 0.2 mm 3 mps 764 mmHg 98%
    06:00 +14°C° 0 mm 3 mps 764 mmHg 96%
    07:00 +14°C° 0 mm 3 mps 764 mmHg 95%
    08:00 +16°C° 0 mm 3 mps 764 mmHg 94%
    09:00 +17°C° 0 mm 3 mps 764 mmHg 90%
    10:00 +18°C° 0 mm 3 mps 763 mmHg 86%
    11:00 +20°C° 0 mm 3 mps 763 mmHg 82%
    12:00 +22°C° 0 mm 4 mps 763 mmHg 75%
    13:00 +25°C° 0 mm 4 mps 763 mmHg 67%
    14:00 +27°C° 0 mm 4 mps 762 mmHg 60%
    15:00 +28°C° 0 mm 4 mps 762 mmHg 59%
    16:00 +28°C° 0 mm 4 mps 762 mmHg 59%
    17:00 +28°C° 0 mm 4 mps 762 mmHg 59%
    18:00 +26°C° 0 mm 4 mps 762 mmHg 66%
    19:00 +23°C° 0 mm 4 mps 762 mmHg 74%
    20:00 +21°C° 0 mm 4 mps 763 mmHg 82%
    21:00 +20°C° 0.3 mm 3 mps 763 mmHg 86%
    22:00 +19°C° 0.3 mm 3 mps 763 mmHg 91%
    23:00 +18°C° 0.3 mm 3 mps 763 mmHg 95%

    Tomorrow, 27 May, Wednesday

    Time Temperature Precipitation Wind Pressure Humidity
    00:00 +17°C° 0 mm 3 mps 763 mmHg 96%
    01:00 +17°C° 0 mm 2 mps 763 mmHg 97%
    02:00 +16°C° 0 mm 2 mps 763 mmHg 98%
    03:00 +16°C° 0 mm 2 mps 763 mmHg 98%
    04:00 +16°C° 0 mm 2 mps 763 mmHg 98%
    05:00 +16°C° 0 mm 2 mps 763 mmHg 98%
    06:00 +17°C° 0 mm 2 mps 763 mmHg 95%
    07:00 +18°C° 0 mm 2 mps 764 mmHg 92%
    08:00 +19°C° 0 mm 2 mps 764 mmHg 89%
    09:00 +23°C° 0 mm 2 mps 764 mmHg 80%
    10:00 +25°C° 0 mm 2 mps 763 mmHg 71%
    11:00 +28°C° 0 mm 2 mps 763 mmHg 61%
    12:00 +30°C° 0 mm 2 mps 763 mmHg 57%
    13:00 +31°C° 0 mm 2 mps 762 mmHg 53%
    14:00 +34°C° 0 mm 3 mps 762 mmHg 49%
    15:00 +31°C° 0.8 mm 3 mps 762 mmHg 60%
    16:00 +29°C° 0.8 mm 3 mps 762 mmHg 71%
    17:00 +27°C° 0.8 mm 2 mps 761 mmHg 81%
    18:00 +26°C° 1.3 mm 3 mps 761 mmHg 85%
    19:00 +24°C° 1.3 mm 3 mps 762 mmHg 89%
    20:00 +22°C° 1.3 mm 3 mps 762 mmHg 93%
    21:00 +21°C° 0.1 mm 3 mps 762 mmHg 93%
    22:00 +20°C° 0.1 mm 3 mps 761 mmHg 94%
    23:00 +20°C° 0.1 mm 3 mps 761 mmHg 95%

    Day after tomorrow, 28 May, Thursday

    Time Temperature Precipitation Wind Pressure Humidity
    00:00 +19°C° 0 mm 3 mps 761 mmHg 95%
    01:00 +18°C° 0 mm 3 mps 761 mmHg 96%
    02:00 +17°C° 0 mm 2 mps 761 mmHg 96%
    03:00 +17°C° 0 mm 2 mps 761 mmHg 96%
    04:00 +17°C° 0 mm 2 mps 761 mmHg 97%
    05:00 +17°C° 0 mm 2 mps 761 mmHg 97%
    06:00 +18°C° 0.1 mm 2 mps 761 mmHg 95%
    07:00 +20°C° 0.1 mm 2 mps 761 mmHg 92%
    08:00 +22°C° 0.1 mm 3 mps 761 mmHg 89%
    09:00 +25°C° 0 mm 3 mps 760 mmHg 80%
    10:00 +28°C° 0 mm 3 mps 760 mmHg 71%
    11:00 +30°C° 0 mm 4 mps 760 mmHg 63%
    12:00 +30°C° 0.1 mm 4 mps 759 mmHg 62%
    13:00 +32°C° 0.1 mm 4 mps 759 mmHg 62%
    14:00 +32°C° 0.1 mm 4 mps 759 mmHg 62%
    15:00 +32°C° 0.1 mm 4 mps 759 mmHg 62%
    16:00 +30°C° 0.1 mm 4 mps 759 mmHg 62%
    17:00 +30°C° 0.1 mm 3 mps 758 mmHg 62%
    18:00 +28°C° 0 mm 3 mps 758 mmHg 69%
    19:00 +27°C° 0 mm 3 mps 758 mmHg 76%
    20:00 +25°C° 0 mm 3 mps 759 mmHg 84%
    21:00 +24°C° 0 mm 3 mps 759 mmHg 85%
    22:00 +22°C° 0 mm 3 mps 759 mmHg 87%
    23:00 +21°C° 0 mm 3 mps 759 mmHg 89%

    29 May, Friday

    Time Temperature Precipitation Wind Pressure Humidity
    00:00 +21°C° 0 mm 3 mps 758 mmHg 91%
    01:00 +20°C° 0 mm 2 mps 758 mmHg 92%
    02:00 +19°C° 0 mm 2 mps 758 mmHg 94%
    03:00 +19°C° 0 mm 2 mps 758 mmHg 95%
    04:00 +19°C° 0 mm 2 mps 757 mmHg 95%
    05:00 +18°C° 0 mm 2 mps 757 mmHg 96%
    06:00 +20°C° 0 mm 2 mps 757 mmHg 91%
    07:00 +22°C° 0 mm 3 mps 757 mmHg 86%
    08:00 +24°C° 0 mm 3 mps 757 mmHg 82%
    09:00 +25°C° 0.3 mm 3 mps 757 mmHg 79%
    10:00 +26°C° 0.3 mm 4 mps 756 mmHg 77%
    11:00 +27°C° 0.3 mm 4 mps 756 mmHg 75%
    12:00 +28°C° 0.3 mm 4 mps 755 mmHg 71%
    13:00 +29°C° 0.3 mm 5 mps 755 mmHg 67%
    14:00 +30°C° 0.3 mm 5 mps 754 mmHg 63%
    15:00 +30°C° 0.4 mm 5 mps 754 mmHg 67%
    16:00 +29°C° 0.4 mm 4 mps 754 mmHg 71%
    17:00 +29°C° 0.4 mm 4 mps 753 mmHg 75%
    18:00 +27°C° 0.4 mm 4 mps 753 mmHg 79%
    19:00 +25°C° 0.4 mm 4 mps 753 mmHg 84%
    20:00 +23°C° 0.4 mm 4 mps 753 mmHg 89%
    21:00 +22°C° 0.1 mm 4 mps 753 mmHg 91%
    22:00 +21°C° 0.1 mm 4 mps 753 mmHg 93%
    23:00 +21°C° 0.1 mm 4 mps 753 mmHg 95%

    30 May, Saturday

    Time Temperature Precipitation Wind Pressure Humidity
    00:00 +21°C° 0 mm 4 mps 752 mmHg 94%
    01:00 +21°C° 0 mm 4 mps 752 mmHg 94%
    02:00 +21°C° 0 mm 4 mps 752 mmHg 93%
    03:00 +21°C° 0.2 mm 4 mps 752 mmHg 94%
    04:00 +21°C° 0.2 mm 4 mps 752 mmHg 95%
    05:00 +20°C° 0.2 mm 4 mps 752 mmHg 96%
    06:00 +21°C° 0.1 mm 4 mps 752 mmHg 96%
    07:00 +21°C° 0.1 mm 3 mps 753 mmHg 95%
    08:00 +21°C° 0.1 mm 3 mps 753 mmHg 94%
    09:00 +22°C° 0.4 mm 3 mps 753 mmHg 92%
    10:00 +22°C° 0.4 mm 3 mps 753 mmHg 91%
    11:00 +24°C° 0.4 mm 3 mps 753 mmHg 89%
    12:00 +24°C° 1.3 mm 3 mps 752 mmHg 90%
    13:00 +23°C° 1.3 mm 2 mps 752 mmHg 90%
    14:00 +23°C° 1.3 mm 2 mps 752 mmHg 91%
    15:00 +23°C° 2.1 mm 2 mps 752 mmHg 92%
    16:00 +23°C° 2.1 mm 2 mps 752 mmHg 93%
    17:00 +23°C° 2.1 mm 2 mps 751 mmHg 95%
    18:00 +21°C° 2.6 mm 2 mps 751 mmHg 96%
    19:00 +20°C° 2.6 mm 3 mps 751 mmHg 96%
    20:00 +19°C° 2.6 mm 4 mps 751 mmHg 97%
    21:00 +19°C° 1 mm 3 mps 751 mmHg 98%
    22:00 +19°C° 1 mm 3 mps 751 mmHg 98%
    23:00 +19°C° 1 mm 3 mps 751 mmHg 98%

    31 May, Sunday

    Time Temperature Precipitation Wind Pressure Humidity
    00:00 +18°C° 0.1 mm 3 mps 751 mmHg 97%
    01:00 +18°C° 0.1 mm 3 mps 752 mmHg 96%
    02:00 +17°C° 0.1 mm 2 mps 752 mmHg 95%
    03:00 +17°C° 0.2 mm 2 mps 752 mmHg 95%
    04:00 +16°C° 0.2 mm 2 mps 752 mmHg 95%
    05:00 +15°C° 0.2 mm 2 mps 753 mmHg 95%
    06:00 +14°C° 0 mm 3 mps 753 mmHg 92%
    07:00 +13°C° 0 mm 3 mps 754 mmHg 90%
    08:00 +13°C° 0 mm 3 mps 754 mmHg 87%
    09:00 +14°C° 0 mm 3 mps 754 mmHg 79%
    10:00 +14°C° 0 mm 3 mps 754 mmHg 71%
    11:00 +16°C° 0 mm 3 mps 755 mmHg 63%
    12:00 +17°C° 0 mm 3 mps 755 mmHg 58%
    13:00 +18°C° 0 mm 3 mps 755 mmHg 53%
    14:00 +19°C° 0 mm 3 mps 755 mmHg 48%
    15:00 +19°C° 0 mm 3 mps 755 mmHg 48%
    16:00 +19°C° 0 mm 3 mps 755 mmHg 47%
    17:00 +19°C° 0 mm 3 mps 755 mmHg 47%
    18:00 +18°C° 0 mm 3 mps 755 mmHg 52%
    19:00 +16°C° 0 mm 3 mps 756 mmHg 56%
    20:00 +14°C° 0 mm 3 mps 756 mmHg 60%
    21:00 +12°C° 0 mm 3 mps 757 mmHg 56%
    22:00 +11°C° 0 mm 3 mps 757 mmHg 52%
    23:00 +9°C° 0 mm 3 mps 758 mmHg 48%
    Show more